Weather History for KP53 - August, 2013

Change the Weather History Date:

Wednesday, August 21, 2013

  Actual Average (KISQ) Record (KISQ)
Temperature  
Mean Temperature 79 °F -  
Max Temperature 90 °F 72 °F 93 °F (1955)
Min Temperature 68 °F 53 °F 34 °F (1969)
Cooling Degree Days 14    
Growing Degree Days 29 (Base 50)    
Moisture  
Dew Point 65 °F    
Average Humidity 71    
Maximum Humidity 90    
Minimum Humidity 50    
Precipitation  
Precipitation 0.80 in - - ()
Sea Level Pressure  
Sea Level Pressure 29.88 in    
Wind  
Wind Speed 7 mph (SSW)    
Max Wind Speed 14 mph    
Max Gust Speed 24 mph    
Averages and records for this station are not official NWS values.
T = Trace of Precipitation, MM = Missing Value Source: NWS Daily Summary

Daily Weather History Graph

Daily Weather History Graph

Search for Another Location

Airport or City:

Trip Planner

Search our weather history database for the weather conditions in past years. The results will help you decide how hot, cold, wet, or windy it might be!

Date:

Astronomy

Aug. 21, 2013 Rise Set
Actual Time 6:53 AM EDT 8:45 PM EDT
Civil Twilight 6:20 AM EDT 9:17 PM EDT
Nautical Twilight 5:41 AM EDT 9:56 PM EDT
Astronomical Twilight 4:57 AM EDT 10:39 PM EDT
Moon 8:45 PM EDT (8/21) 7:38 AM EDT (8/21)
Length of Visible Light 14h 56m
Length of Day
13h 52m
Full, 100% of the Moon is Illuminated
Aug 21
Full
Aug 28
Last Quarter
Sep 5
New
Sep 12
First Quarter
Sep 19
Full

Hourly Weather History & Observations

Time (EDT) Temp. Heat Index Dew Point Humidity Pressure Visibility Wind Dir Wind Speed Gust Speed Precip Events Conditions
12:56 AM 73.0 °F - 62.1 °F 68% 29.91 in - South 5.8 mph - N/A   Unknown
1:56 AM 75.0 °F - 62.1 °F 64% 29.90 in - SSW 9.2 mph - N/A   Unknown
2:56 AM 73.0 °F - 62.1 °F 68% 29.90 in - SSW 8.1 mph - N/A   Unknown
3:56 AM 73.0 °F - 62.1 °F 68% 29.90 in - South 9.2 mph 16.1 mph N/A   Unknown
4:56 AM 73.0 °F - 62.1 °F 68% 29.89 in - SSW 6.9 mph - N/A   Unknown
5:56 AM 73.0 °F - 63.0 °F 71% 29.88 in - SSW 9.2 mph - N/A   Unknown
6:56 AM 72.0 °F - 62.1 °F 71% 29.88 in - SSW 6.9 mph - N/A   Unknown
7:56 AM 72.0 °F - 63.0 °F 73% 29.91 in - South 8.1 mph - N/A   Unknown
8:56 AM 73.9 °F - 63.0 °F 68% 29.91 in - SSW 11.5 mph 18.4 mph N/A   Unknown
9:56 AM 77.0 °F - 64.0 °F 64% 29.88 in - SW 13.8 mph 24.2 mph N/A   Unknown
10:56 AM 79.0 °F - 64.9 °F 62% 29.87 in - SSW 9.2 mph 20.7 mph N/A   Unknown
11:56 AM 84.0 °F 86.5 °F 66.9 °F 56% 29.83 in - South 10.4 mph 20.7 mph N/A   Unknown
12:56 PM 87.1 °F 90.6 °F 68.0 °F 53% 29.83 in - SSW 10.4 mph 17.3 mph N/A   Unknown
1:56 PM 87.1 °F 90.6 °F 68.0 °F 53% 29.83 in - SSW 10.4 mph 18.4 mph N/A   Unknown
2:56 PM 89.1 °F 92.9 °F 68.0 °F 50% 29.85 in - SW 8.1 mph 18.4 mph N/A   Unknown
3:56 PM 89.1 °F 92.9 °F 68.0 °F 50% 29.83 in - South 10.4 mph 20.7 mph N/A   Unknown
4:56 PM 71.1 °F - 68.0 °F 90% 29.88 in - Variable 4.6 mph - 0.30 in   Unknown
5:56 PM 72.0 °F - 68.0 °F 87% 29.88 in - South 8.1 mph - 0.37 in   Unknown
6:56 PM 71.1 °F - 66.0 °F 84% 29.86 in - Calm Calm - 0.10 in   Unknown
7:56 PM 70.0 °F - 66.0 °F 87% 29.86 in - SSE 3.5 mph - 0.01 in   Unknown
8:56 PM 70.0 °F - 66.9 °F 90% 29.88 in - Calm Calm - 0.02 in   Unknown
9:56 PM 69.1 °F - 66.0 °F 90% 29.93 in - South 4.6 mph - N/A   Unknown
10:56 PM 70.0 °F - 66.0 °F 87% 29.93 in - Calm Calm - N/A   Unknown
11:56 PM 68.0 °F - 64.9 °F 90% 29.95 in - Calm Calm - N/A   Unknown